Hourly Data Report for June 17, 2003

All times are specified in Local Standard Time (LST). Add 1 hour to adjust for Daylight Saving Time where and when it is observed.

TORONTO CITY
ONTARIO

43°40'00.000" N
79°24'00.000" W
112.50 m
6158355
71508
XTO

Download Data

Hourly Data (June 2003)
Hourly Data Report for June 17, 2003
TIME Temp Definition
°C
Dew Point Definition
°C
Rel Hum Definition
%
Wind Dir Definition
10's deg

Wind Spd Definition
km/h
Visibility Definition
km
Stn Press Definition
kPa
Hmdx Definition


Wind Chill Definition


Weather Definition


00:00 15.7 8.7 63 LegendMM LegendMM LegendMM 100.82     LegendNANA
01:00 14.7 8.9 68 LegendMM LegendMM LegendMM 100.81     LegendNANA
02:00 14.2 9.0 71 LegendMM LegendMM LegendMM 100.78     LegendNANA
03:00 14.5 9.3 71 LegendMM LegendMM LegendMM 100.73     LegendNANA
04:00 14.8 9.0 68 LegendMM LegendMM LegendMM 100.70     LegendNANA
05:00 15.0 9.6 70 LegendMM LegendMM LegendMM 100.71     LegendNANA
06:00 15.2 10.0 71 LegendMM LegendMM LegendMM 100.72     LegendNANA
07:00 16.2 11.0 71 LegendMM LegendMM LegendMM 100.72     LegendNANA
08:00 17.3 12.0 71 LegendMM LegendMM LegendMM 100.69     LegendNANA
09:00 19.8 13.3 66 LegendMM LegendMM LegendMM 100.65     LegendNANA
10:00 21.1 13.6 62 LegendMM LegendMM LegendMM 100.62     LegendNANA
11:00 22.4 15.3 64 LegendMM LegendMM LegendMM 100.60 27   LegendNANA
12:00 23.3 15.9 63 LegendMM LegendMM LegendMM 100.54 28   LegendNANA
13:00 24.5 16.5 61 LegendMM LegendMM LegendMM 100.46 29   LegendNANA
14:00 23.7 15.7 61 LegendMM LegendMM LegendMM 100.43 28   LegendNANA
15:00 24.4 15.9 59 LegendMM LegendMM LegendMM 100.36 29   LegendNANA
16:00 23.3 15.6 62 LegendMM LegendMM LegendMM 100.32 28   LegendNANA
17:00 21.9 15.0 65 LegendMM LegendMM LegendMM 100.27 26   LegendNANA
18:00 20.5 15.1 71 LegendMM LegendMM LegendMM 100.25 25   LegendNANA
19:00 20.1 14.7 71 LegendMM LegendMM LegendMM 100.18     LegendNANA
20:00 17.3 13.2 77 LegendMM LegendMM LegendMM 100.18     LegendNANA
21:00 17.1 14.4 84 LegendMM LegendMM LegendMM 100.21     LegendNANA
22:00 18.2 14.5 79 LegendMM LegendMM LegendMM 100.16     LegendNANA
23:00 18.9 14.8 77 LegendMM LegendMM LegendMM 100.12     LegendNANA

Notes on Data Quality.

Legend

  • E = Estimated
  • M = Missing
  • NA = Not Available
Date modified: